Year,Month,Day,Hour,Minute,Value (Times are PST for temperature in C)
2014,11,16,00,00,-4.50
2014,11,16,00,01,-4.50
2014,11,16,00,02,-4.50
2014,11,16,00,03,-4.50
2014,11,16,00,04,-4.50
2014,11,16,00,05,-4.60
2014,11,16,00,06,-4.60
2014,11,16,00,07,-4.60
2014,11,16,00,08,-4.60
2014,11,16,00,09,-4.60
2014,11,16,00,10,-4.60
2014,11,16,00,11,-4.60
2014,11,16,00,12,-4.60
2014,11,16,00,13,-4.60
2014,11,16,00,14,-4.50
2014,11,16,00,15,-4.50
2014,11,16,00,16,-4.50
2014,11,16,00,17,-4.50
2014,11,16,00,18,-4.50
2014,11,16,00,19,-4.60
2014,11,16,00,20,-4.50
2014,11,16,00,21,-4.50
2014,11,16,00,22,-4.50
2014,11,16,00,23,-4.60
2014,11,16,00,24,-4.60
2014,11,16,00,25,-4.50
2014,11,16,00,26,-4.50
2014,11,16,00,27,-4.50
2014,11,16,00,28,-4.50
2014,11,16,00,29,-4.50
2014,11,16,00,30,-4.50
2014,11,16,00,31,-4.50
2014,11,16,00,32,-4.50
2014,11,16,00,33,-4.50
2014,11,16,00,34,-4.50
2014,11,16,00,35,-4.50
2014,11,16,00,36,-4.50
2014,11,16,00,37,-4.50
2014,11,16,00,38,-4.50
2014,11,16,00,39,-4.50
2014,11,16,00,40,-4.50
2014,11,16,00,41,-4.50
2014,11,16,00,42,-4.50
2014,11,16,00,43,-4.40
2014,11,16,00,44,-4.40
2014,11,16,00,45,-4.40
2014,11,16,00,46,-4.40
2014,11,16,00,47,-4.40
2014,11,16,00,48,-4.40
2014,11,16,00,49,-4.40
2014,11,16,00,50,-4.40
2014,11,16,00,51,-4.40
2014,11,16,00,52,-4.30
2014,11,16,00,53,-4.30
2014,11,16,00,54,-4.30
2014,11,16,00,55,-4.30
2014,11,16,00,56,-4.30
2014,11,16,00,57,-4.30
2014,11,16,00,58,-4.30
2014,11,16,00,59,-4.30
2014,11,16,01,00,-4.30
2014,11,16,01,01,-4.20
2014,11,16,01,02,-4.20
2014,11,16,01,03,-4.20
2014,11,16,01,04,-4.20
2014,11,16,01,05,-4.20
2014,11,16,01,06,-4.20
2014,11,16,01,07,-4.20
2014,11,16,01,08,-4.20
2014,11,16,01,09,-4.20
2014,11,16,01,10,-4.20
2014,11,16,01,11,-4.20
2014,11,16,01,12,-4.20
2014,11,16,01,13,-4.10
2014,11,16,01,14,-4.10
2014,11,16,01,15,-4.10
2014,11,16,01,16,-4.10
2014,11,16,01,17,-4.10
2014,11,16,01,18,-4.10
2014,11,16,01,19,-4.10
2014,11,16,01,20,-4.10
2014,11,16,01,21,-4.10
2014,11,16,01,22,-4.10
2014,11,16,01,23,-4.10
2014,11,16,01,24,-4.10
2014,11,16,01,25,-4.10
2014,11,16,01,26,-4.10
2014,11,16,01,27,-4.20
2014,11,16,01,28,-4.10
2014,11,16,01,29,-4.10
2014,11,16,01,30,-4.10
2014,11,16,01,31,-4.20
2014,11,16,01,32,-4.20
2014,11,16,01,33,-4.20
2014,11,16,01,34,-4.10
2014,11,16,01,35,-4.10
2014,11,16,01,36,-4.10
2014,11,16,01,37,-4.10
2014,11,16,01,38,-4.10
2014,11,16,01,39,-4.10
2014,11,16,01,40,-4.00
2014,11,16,01,41,-4.00
2014,11,16,01,42,-4.00
2014,11,16,01,43,-3.90
2014,11,16,01,44,-3.90
2014,11,16,01,45,-3.90
2014,11,16,01,46,-3.90
2014,11,16,01,47,-3.90
2014,11,16,01,48,-3.90
2014,11,16,01,49,-3.90
2014,11,16,01,50,-3.90
2014,11,16,01,51,-3.90
2014,11,16,01,52,-3.90
2014,11,16,01,53,-3.90
2014,11,16,01,54,-3.80
2014,11,16,01,55,-3.80
2014,11,16,01,56,-3.80
2014,11,16,01,57,-3.80
2014,11,16,01,58,-3.80
2014,11,16,01,59,-3.70
2014,11,16,02,00,-3.70
2014,11,16,02,01,-3.70
2014,11,16,02,02,-3.70
2014,11,16,02,03,-3.70
2014,11,16,02,04,-3.60
2014,11,16,02,05,-3.60
2014,11,16,02,06,-3.60
2014,11,16,02,07,-3.60
2014,11,16,02,08,-3.60
2014,11,16,02,09,-3.60
2014,11,16,02,10,-3.60
2014,11,16,02,11,-3.50
2014,11,16,02,12,-3.50
2014,11,16,02,13,-3.40
2014,11,16,02,14,-3.40
2014,11,16,02,15,-3.30
2014,11,16,02,16,-3.30
2014,11,16,02,17,-3.30
2014,11,16,02,18,-3.30
2014,11,16,02,19,-3.30
2014,11,16,02,20,-3.30
2014,11,16,02,21,-3.30
2014,11,16,02,22,-3.30
2014,11,16,02,23,-3.30
2014,11,16,02,24,-3.30
2014,11,16,02,25,-3.30
2014,11,16,02,26,-3.30
2014,11,16,02,27,-3.30
2014,11,16,02,28,-3.30
2014,11,16,02,29,-3.30
2014,11,16,02,30,-3.30
2014,11,16,02,31,-3.30
2014,11,16,02,32,-3.30
2014,11,16,02,33,-3.30
2014,11,16,02,34,-3.30
2014,11,16,02,35,-3.20
2014,11,16,02,36,-3.20
2014,11,16,02,37,-3.20
2014,11,16,02,38,-3.20
2014,11,16,02,39,-3.20
2014,11,16,02,40,-3.20
2014,11,16,02,41,-3.20
2014,11,16,02,42,-3.20
2014,11,16,02,43,-3.20
2014,11,16,02,44,-3.20
2014,11,16,02,45,-3.20
2014,11,16,02,46,-3.20
2014,11,16,02,47,-3.20
2014,11,16,02,48,-3.20
2014,11,16,02,49,-3.20
2014,11,16,02,50,-3.20
2014,11,16,02,51,-3.20
2014,11,16,02,52,-3.30
2014,11,16,02,53,-3.30
2014,11,16,02,54,-3.30
2014,11,16,02,55,-3.30
2014,11,16,02,56,-3.30
2014,11,16,02,57,-3.30
2014,11,16,02,58,-3.40
2014,11,16,02,59,-3.40
2014,11,16,03,00,-3.40
2014,11,16,03,01,-3.40
2014,11,16,03,02,-3.40
2014,11,16,03,03,-3.40
2014,11,16,03,04,-3.30
2014,11,16,03,05,-3.20
2014,11,16,03,06,-3.20
2014,11,16,03,07,-3.20
2014,11,16,03,08,-3.10
2014,11,16,03,09,-3.10
2014,11,16,03,10,-3.00
2014,11,16,03,11,-2.90
2014,11,16,03,12,-2.80
2014,11,16,03,13,-2.70
2014,11,16,03,14,-2.50
2014,11,16,03,15,-2.40
2014,11,16,03,16,-2.20
2014,11,16,03,17,-2.10
2014,11,16,03,18,-2.10
2014,11,16,03,19,-2.00
2014,11,16,03,20,-2.00
2014,11,16,03,21,-2.00
2014,11,16,03,22,-2.00
2014,11,16,03,23,-2.00
2014,11,16,03,24,-1.90
2014,11,16,03,25,-1.90
2014,11,16,03,26,-1.80
2014,11,16,03,27,-1.70
2014,11,16,03,28,-1.60
2014,11,16,03,29,-1.60
2014,11,16,03,30,-1.50
2014,11,16,03,31,-1.40
2014,11,16,03,32,-1.40
2014,11,16,03,33,-1.40
2014,11,16,03,34,-1.40
2014,11,16,03,35,-1.40
2014,11,16,03,36,-1.40
2014,11,16,03,37,-1.40
2014,11,16,03,38,-1.40
2014,11,16,03,39,-1.30
2014,11,16,03,40,-1.20
2014,11,16,03,41,-1.20
2014,11,16,03,42,-1.10
2014,11,16,03,43,-1.10
2014,11,16,03,44,-1.00
2014,11,16,03,45,-1.00
2014,11,16,03,46,-0.90
2014,11,16,03,47,-0.90
2014,11,16,03,48,-0.90
2014,11,16,03,49,-0.90
2014,11,16,03,50,-0.80
2014,11,16,03,51,-0.70
2014,11,16,03,52,-0.60
2014,11,16,03,53,-0.50
2014,11,16,03,54,-0.40
2014,11,16,03,55,-0.30
2014,11,16,03,56,-0.30
2014,11,16,03,57,-0.20
2014,11,16,03,58,-0.20
2014,11,16,03,59,-0.20
2014,11,16,04,00,-0.20
2014,11,16,04,01,-0.20
2014,11,16,04,02,-0.10
2014,11,16,04,03,-0.10
2014,11,16,04,04,-0.10
2014,11,16,04,05,-0.10
2014,11,16,04,06,-0.10
2014,11,16,04,07,-0.10
2014,11,16,04,08,-0.10
2014,11,16,04,09,-0.10
2014,11,16,04,10,-0.10
2014,11,16,04,11,-0.20
2014,11,16,04,12,-0.20
2014,11,16,04,13,-0.30
2014,11,16,04,14,-0.30
2014,11,16,04,15,-0.30
2014,11,16,04,16,-0.30
2014,11,16,04,17,-0.30
2014,11,16,04,18,-0.30
2014,11,16,04,19,-0.30
2014,11,16,04,20,-0.20
2014,11,16,04,21,-0.20
2014,11,16,04,22,-0.10
2014,11,16,04,23,-0.10
2014,11,16,04,24,-0.10
2014,11,16,04,25,-0.10
2014,11,16,04,26,-0.10
2014,11,16,04,27,-0.10
2014,11,16,04,28,-0.10
2014,11,16,04,29,-0.10
2014,11,16,04,30,-0.10
2014,11,16,04,31,-0.10
2014,11,16,04,32,-0.10
2014,11,16,04,33,-0.10
2014,11,16,04,34,-0.10
2014,11,16,04,35,-0.10
2014,11,16,04,36,-0.10
2014,11,16,04,37,-0.10
2014,11,16,04,38,-0.10
2014,11,16,04,39,0.00
2014,11,16,04,40,0.00
2014,11,16,04,41,0.00
2014,11,16,04,42,-0.10
2014,11,16,04,43,-0.10
2014,11,16,04,44,-0.10
2014,11,16,04,45,-0.10
2014,11,16,04,46,0.00
2014,11,16,04,47,0.00
2014,11,16,04,48,0.00
2014,11,16,04,49,0.10
2014,11,16,04,50,0.10
2014,11,16,04,51,0.10
2014,11,16,04,52,0.10
2014,11,16,04,53,0.10
2014,11,16,04,54,0.10
2014,11,16,04,55,0.00
2014,11,16,04,56,0.00
2014,11,16,04,57,-0.10
2014,11,16,04,58,-0.10
2014,11,16,04,59,-0.10
2014,11,16,05,00,-0.10
2014,11,16,05,01,-0.20
2014,11,16,05,02,-0.20
2014,11,16,05,03,-0.20
2014,11,16,05,04,-0.20
2014,11,16,05,05,-0.10
2014,11,16,05,06,-0.10
2014,11,16,05,07,-0.10
2014,11,16,05,08,-0.10
2014,11,16,05,09,-0.10
2014,11,16,05,10,0.00
2014,11,16,05,11,-0.10
2014,11,16,05,12,-0.10
2014,11,16,05,13,-0.10
2014,11,16,05,14,-0.10
2014,11,16,05,15,-0.10
2014,11,16,05,16,-0.10
2014,11,16,05,17,-0.20
2014,11,16,05,18,-0.20
2014,11,16,05,19,-0.20
2014,11,16,05,20,-0.20
2014,11,16,05,21,-0.30
2014,11,16,05,22,-0.30
2014,11,16,05,23,-0.30
2014,11,16,05,24,-0.30
2014,11,16,05,25,-0.30
2014,11,16,05,26,-0.30
2014,11,16,05,27,-0.30
2014,11,16,05,28,-0.30
2014,11,16,05,29,-0.30
2014,11,16,05,30,-0.40
2014,11,16,05,31,-0.40
2014,11,16,05,32,-0.40
2014,11,16,05,33,-0.50
2014,11,16,05,34,-0.50
2014,11,16,05,35,-0.50
2014,11,16,05,36,-0.50
2014,11,16,05,37,-0.60
2014,11,16,05,38,-0.60
2014,11,16,05,39,-0.60
2014,11,16,05,40,-0.60
2014,11,16,05,41,-0.60
2014,11,16,05,42,-0.60
2014,11,16,05,43,-0.60
2014,11,16,05,44,-0.60
2014,11,16,05,45,-0.60
2014,11,16,05,46,-0.70
2014,11,16,05,47,-0.70
2014,11,16,05,48,-0.70
2014,11,16,05,49,-0.80
2014,11,16,05,50,-0.80
2014,11,16,05,51,-0.80
2014,11,16,05,52,-0.80
2014,11,16,05,53,-0.90
2014,11,16,05,54,-0.90
2014,11,16,05,55,-0.90
2014,11,16,05,56,-0.90
2014,11,16,05,57,-0.90
2014,11,16,05,58,-0.90
2014,11,16,05,59,-0.90
2014,11,16,06,00,-0.90
2014,11,16,06,01,-0.90
2014,11,16,06,02,-0.90
2014,11,16,06,03,-0.90
2014,11,16,06,04,-0.90
2014,11,16,06,05,-0.90
2014,11,16,06,06,-0.90
2014,11,16,06,07,-0.90
2014,11,16,06,08,-0.80
2014,11,16,06,09,-0.80
2014,11,16,06,10,-0.80
2014,11,16,06,11,-0.80
2014,11,16,06,12,-0.80
2014,11,16,06,13,-0.80
2014,11,16,06,14,-0.80
2014,11,16,06,15,-0.90
2014,11,16,06,16,-0.90
2014,11,16,06,17,-1.00
2014,11,16,06,18,-1.00
2014,11,16,06,19,-1.00
2014,11,16,06,20,-1.00
2014,11,16,06,21,-1.00
2014,11,16,06,22,-1.00
2014,11,16,06,23,-0.90
2014,11,16,06,24,-1.00
2014,11,16,06,25,-1.00
2014,11,16,06,26,-1.00
2014,11,16,06,27,-1.00
2014,11,16,06,28,-1.10
2014,11,16,06,29,-1.10
2014,11,16,06,30,-1.10
2014,11,16,06,31,-1.20
2014,11,16,06,32,-1.20
2014,11,16,06,33,-1.20
2014,11,16,06,34,-1.20
2014,11,16,06,35,-1.20
2014,11,16,06,36,-1.20
2014,11,16,06,37,-1.20
2014,11,16,06,38,-1.20
2014,11,16,06,39,-1.20
2014,11,16,06,40,-1.30
2014,11,16,06,41,-1.30
2014,11,16,06,42,-1.40
2014,11,16,06,43,-1.40
2014,11,16,06,44,-1.50
2014,11,16,06,45,-1.50
2014,11,16,06,46,-1.60
2014,11,16,06,47,-1.60
2014,11,16,06,48,-1.60
2014,11,16,06,49,-1.70
2014,11,16,06,50,-1.70
2014,11,16,06,51,-1.70
2014,11,16,06,52,-1.70
2014,11,16,06,53,-1.80
2014,11,16,06,54,-1.80
2014,11,16,06,55,-1.80
2014,11,16,06,56,-1.80
2014,11,16,06,57,-1.80
2014,11,16,06,58,-1.80
2014,11,16,06,59,-1.80
2014,11,16,07,00,-1.80
2014,11,16,07,01,-1.90
2014,11,16,07,02,-1.90
2014,11,16,07,03,-1.90
2014,11,16,07,04,-2.00
2014,11,16,07,05,-2.00
2014,11,16,07,06,-2.10
2014,11,16,07,07,-2.10
2014,11,16,07,08,-2.20
2014,11,16,07,09,-2.20
2014,11,16,07,10,-2.30
2014,11,16,07,11,-2.30
2014,11,16,07,12,-2.30
2014,11,16,07,13,-2.40
2014,11,16,07,14,-2.40
2014,11,16,07,15,-2.40
2014,11,16,07,16,-2.50
2014,11,16,07,17,-2.50
2014,11,16,07,18,-2.50
2014,11,16,07,19,-2.60
2014,11,16,07,20,-2.60
2014,11,16,07,21,-2.60
2014,11,16,07,22,-2.60
2014,11,16,07,23,-2.60
2014,11,16,07,24,-2.70
2014,11,16,07,25,-2.70
2014,11,16,07,26,-2.70
2014,11,16,07,27,-2.70
2014,11,16,07,28,-2.70
2014,11,16,07,29,-2.80
2014,11,16,07,30,-2.80
2014,11,16,07,31,-2.80
2014,11,16,07,32,-2.80
2014,11,16,07,33,-2.90
2014,11,16,07,34,-2.90
2014,11,16,07,35,-2.90
2014,11,16,07,36,-2.90
2014,11,16,07,37,-2.90
2014,11,16,07,38,-2.90
2014,11,16,07,39,-2.90
2014,11,16,07,40,-2.90
2014,11,16,07,41,-2.90
2014,11,16,07,42,-2.90
2014,11,16,07,43,-2.90
2014,11,16,07,44,-2.90
2014,11,16,07,45,-3.00
2014,11,16,07,46,-3.00
2014,11,16,07,47,-2.90
2014,11,16,07,48,-2.90
2014,11,16,07,49,-2.80
2014,11,16,07,50,-2.80
2014,11,16,07,51,-2.80
2014,11,16,07,52,-2.70
2014,11,16,07,53,-2.70
2014,11,16,07,54,-2.70
2014,11,16,07,55,-2.70
2014,11,16,07,56,-2.80
2014,11,16,07,57,-2.80
2014,11,16,07,58,-2.80
2014,11,16,07,59,-2.80
2014,11,16,08,00,-2.80
2014,11,16,08,01,-2.80
2014,11,16,08,02,-2.80
2014,11,16,08,03,-2.80
2014,11,16,08,04,-2.80
2014,11,16,08,05,-2.70
2014,11,16,08,06,-2.70
2014,11,16,08,07,-2.60
2014,11,16,08,08,-2.60
2014,11,16,08,09,-2.50
2014,11,16,08,10,-2.40
2014,11,16,08,11,-2.40
2014,11,16,08,12,-2.30
2014,11,16,08,13,-2.30
2014,11,16,08,14,-2.30
2014,11,16,08,15,-2.20
2014,11,16,08,16,-2.20
2014,11,16,08,17,-2.20
2014,11,16,08,18,-2.20
2014,11,16,08,19,-2.10
2014,11,16,08,20,-1.90
2014,11,16,08,21,-1.80
2014,11,16,08,22,-1.70
2014,11,16,08,23,-1.60
2014,11,16,08,24,-1.50
2014,11,16,08,25,-1.40
2014,11,16,08,26,-1.40
2014,11,16,08,27,-1.30
2014,11,16,08,28,-1.20
2014,11,16,08,29,-1.10
2014,11,16,08,30,-1.00
2014,11,16,08,31,-1.00
2014,11,16,08,32,-0.90
2014,11,16,08,33,-0.90
2014,11,16,08,34,-0.90
2014,11,16,08,35,-0.90
2014,11,16,08,36,-0.80
2014,11,16,08,37,-0.80
2014,11,16,08,38,-0.70
2014,11,16,08,39,-0.60
2014,11,16,08,40,-0.60
2014,11,16,08,41,-0.60
2014,11,16,08,42,-0.50
2014,11,16,08,43,-0.50
2014,11,16,08,44,-0.50
2014,11,16,08,45,-0.40
2014,11,16,08,46,-0.40
2014,11,16,08,47,-0.30
2014,11,16,08,48,-0.30
2014,11,16,08,49,-0.30
2014,11,16,08,50,-0.20
2014,11,16,08,51,-0.20
2014,11,16,08,52,-0.20
2014,11,16,08,53,-0.20
2014,11,16,08,54,-0.20
2014,11,16,08,55,-0.20
2014,11,16,08,56,-0.20
2014,11,16,08,57,-0.20
2014,11,16,08,58,-0.20
2014,11,16,08,59,-0.10
2014,11,16,09,00,-0.10
2014,11,16,09,01,0.00
2014,11,16,09,02,0.10
2014,11,16,09,03,0.20
2014,11,16,09,04,0.30
2014,11,16,09,05,0.30
2014,11,16,09,06,0.30
2014,11,16,09,07,0.40
2014,11,16,09,08,0.40
2014,11,16,09,09,0.40
2014,11,16,09,10,0.40
2014,11,16,09,11,0.40
2014,11,16,09,12,0.40
2014,11,16,09,13,0.40
2014,11,16,09,14,0.50
2014,11,16,09,15,0.50
2014,11,16,09,16,0.50
2014,11,16,09,17,0.50
2014,11,16,09,18,0.60
2014,11,16,09,19,0.60
2014,11,16,09,20,0.60
2014,11,16,09,21,0.70
2014,11,16,09,22,0.70
2014,11,16,09,23,0.70
2014,11,16,09,24,0.70
2014,11,16,09,25,0.80
2014,11,16,09,26,0.80
2014,11,16,09,27,0.90
2014,11,16,09,28,0.90
2014,11,16,09,29,1.00
2014,11,16,09,30,1.10
2014,11,16,09,31,1.10
2014,11,16,09,32,1.20
2014,11,16,09,33,1.20
2014,11,16,09,34,1.30
2014,11,16,09,35,1.30
2014,11,16,09,36,1.30
2014,11,16,09,37,1.30
2014,11,16,09,38,1.30
2014,11,16,09,39,1.40
2014,11,16,09,40,1.50
2014,11,16,09,41,1.60
2014,11,16,09,42,1.60
2014,11,16,09,43,1.70
2014,11,16,09,44,1.70
2014,11,16,09,45,1.80
2014,11,16,09,46,1.80
2014,11,16,09,47,1.90
2014,11,16,09,48,1.90
2014,11,16,09,49,1.90
2014,11,16,09,50,1.90
2014,11,16,09,51,2.00
2014,11,16,09,52,2.00
2014,11,16,09,53,2.00
2014,11,16,09,54,2.10
2014,11,16,09,55,2.10
2014,11,16,09,56,2.10
2014,11,16,09,57,2.10
2014,11,16,09,58,2.20
2014,11,16,09,59,2.20
2014,11,16,10,00,2.20
2014,11,16,10,01,2.20
2014,11,16,10,02,2.30
2014,11,16,10,03,2.30
2014,11,16,10,04,2.30
2014,11,16,10,05,2.40
2014,11,16,10,06,2.40
2014,11,16,10,07,2.40
2014,11,16,10,08,2.40
2014,11,16,10,09,2.40
2014,11,16,10,10,2.40
2014,11,16,10,11,2.50
2014,11,16,10,12,2.50
2014,11,16,10,13,2.50
2014,11,16,10,14,2.50
2014,11,16,10,15,2.50
2014,11,16,10,16,2.60
2014,11,16,10,17,2.60
2014,11,16,10,18,2.60
2014,11,16,10,19,2.60
2014,11,16,10,20,2.60
2014,11,16,10,21,2.70
2014,11,16,10,22,2.70
2014,11,16,10,23,2.70
2014,11,16,10,24,2.70
2014,11,16,10,25,2.70
2014,11,16,10,26,2.80
2014,11,16,10,27,2.80
2014,11,16,10,28,2.80
2014,11,16,10,29,2.80
2014,11,16,10,30,2.80
2014,11,16,10,31,2.80
2014,11,16,10,32,2.80
2014,11,16,10,33,2.80
2014,11,16,10,34,2.80
2014,11,16,10,35,2.90
2014,11,16,10,36,2.90
2014,11,16,10,37,2.90
2014,11,16,10,38,2.90
2014,11,16,10,39,3.00
2014,11,16,10,40,3.00
2014,11,16,10,41,3.00
2014,11,16,10,42,3.00
2014,11,16,10,43,3.00
2014,11,16,10,44,3.00
2014,11,16,10,45,3.00
2014,11,16,10,46,3.10
2014,11,16,10,47,3.10
2014,11,16,10,48,3.10
2014,11,16,10,49,3.10
2014,11,16,10,50,3.10
2014,11,16,10,51,3.20
2014,11,16,10,52,3.20
2014,11,16,10,53,3.20
2014,11,16,10,54,3.20
2014,11,16,10,55,3.30
2014,11,16,10,56,3.30
2014,11,16,10,57,3.30
2014,11,16,10,58,3.30
2014,11,16,10,59,3.30
2014,11,16,11,00,3.30
2014,11,16,11,01,3.30
2014,11,16,11,02,3.30
2014,11,16,11,03,3.40
2014,11,16,11,04,3.40
2014,11,16,11,05,3.40
2014,11,16,11,06,3.40
2014,11,16,11,07,3.40
2014,11,16,11,08,3.40
2014,11,16,11,09,3.40
2014,11,16,11,10,3.50
2014,11,16,11,11,3.50
2014,11,16,11,12,3.50
2014,11,16,11,13,3.50
2014,11,16,11,14,3.60
2014,11,16,11,15,3.60
2014,11,16,11,16,3.60
2014,11,16,11,17,3.60
2014,11,16,11,18,3.60
2014,11,16,11,19,3.60
2014,11,16,11,20,3.60
2014,11,16,11,21,3.70
2014,11,16,11,22,3.70
2014,11,16,11,23,3.70
2014,11,16,11,24,3.70
2014,11,16,11,25,3.70
2014,11,16,11,26,3.70
2014,11,16,11,27,3.70
2014,11,16,11,28,3.70
2014,11,16,11,29,3.70
2014,11,16,11,30,3.80
2014,11,16,11,31,3.80
2014,11,16,11,32,3.80
2014,11,16,11,33,3.80
2014,11,16,11,34,3.80
2014,11,16,11,35,3.90
2014,11,16,11,36,3.90
2014,11,16,11,37,3.90
2014,11,16,11,38,3.90
2014,11,16,11,39,4.00
2014,11,16,11,40,4.00
2014,11,16,11,41,4.10
2014,11,16,11,42,4.10
2014,11,16,11,43,4.10
2014,11,16,11,44,4.10
2014,11,16,11,45,4.20
2014,11,16,11,46,4.20
2014,11,16,11,47,4.30
2014,11,16,11,48,4.30
2014,11,16,11,49,4.30
2014,11,16,11,50,4.30
2014,11,16,11,51,4.30
2014,11,16,11,52,4.30
2014,11,16,11,53,4.40
2014,11,16,11,54,4.40
2014,11,16,11,55,4.40
2014,11,16,11,56,4.40
2014,11,16,11,57,4.40
2014,11,16,11,58,4.40
2014,11,16,11,59,4.40
2014,11,16,12,00,4.40
2014,11,16,12,01,4.40
2014,11,16,12,02,4.40
2014,11,16,12,03,4.40
2014,11,16,12,04,4.40
2014,11,16,12,05,4.50
2014,11,16,12,06,4.40
2014,11,16,12,07,4.50
2014,11,16,12,08,4.50
2014,11,16,12,09,4.50
2014,11,16,12,10,4.50
2014,11,16,12,11,4.60
2014,11,16,12,12,4.60
2014,11,16,12,13,4.60
2014,11,16,12,14,4.70
2014,11,16,12,15,4.70
2014,11,16,12,16,4.70
2014,11,16,12,17,4.70
2014,11,16,12,18,4.70
2014,11,16,12,19,4.70
2014,11,16,12,20,4.70
2014,11,16,12,21,4.70
2014,11,16,12,22,4.60
2014,11,16,12,23,4.60
2014,11,16,12,24,4.70
2014,11,16,12,25,4.70
2014,11,16,12,26,4.70
2014,11,16,12,27,4.70
2014,11,16,12,28,4.70
2014,11,16,12,29,4.70
2014,11,16,12,30,4.80
2014,11,16,12,31,4.80
2014,11,16,12,32,4.80
2014,11,16,12,33,4.80
2014,11,16,12,34,4.80
2014,11,16,12,35,4.90
2014,11,16,12,36,4.90
2014,11,16,12,37,4.90
2014,11,16,12,38,4.90
2014,11,16,12,39,4.90
2014,11,16,12,40,5.00
2014,11,16,12,41,5.00
2014,11,16,12,42,5.00
2014,11,16,12,43,5.10
2014,11,16,12,44,5.10
2014,11,16,12,45,5.10
2014,11,16,12,46,5.10
2014,11,16,12,47,5.10
2014,11,16,12,48,5.10
2014,11,16,12,49,5.10
2014,11,16,12,50,5.10
2014,11,16,12,51,5.10
2014,11,16,12,52,5.00
2014,11,16,12,53,5.00
2014,11,16,12,54,5.00
2014,11,16,12,55,5.00
2014,11,16,12,56,5.00
2014,11,16,12,57,5.10
2014,11,16,12,58,5.00
2014,11,16,12,59,5.00
2014,11,16,13,00,5.00
2014,11,16,13,01,4.90
2014,11,16,13,02,4.90
2014,11,16,13,03,4.80
2014,11,16,13,04,4.80
2014,11,16,13,05,4.80
2014,11,16,13,06,4.80
2014,11,16,13,07,4.80
2014,11,16,13,08,4.80
2014,11,16,13,09,4.80
2014,11,16,13,10,4.80
2014,11,16,13,11,4.80
2014,11,16,13,12,4.80
2014,11,16,13,13,4.80
2014,11,16,13,14,4.90
2014,11,16,13,15,4.90
2014,11,16,13,16,4.90
2014,11,16,13,17,4.90
2014,11,16,13,18,4.90
2014,11,16,13,19,4.90
2014,11,16,13,20,4.90
2014,11,16,13,21,5.00
2014,11,16,13,22,5.00
2014,11,16,13,23,5.00
2014,11,16,13,24,5.10
2014,11,16,13,25,5.00
2014,11,16,13,26,5.00
2014,11,16,13,27,4.90
2014,11,16,13,28,4.90
2014,11,16,13,29,4.90
2014,11,16,13,30,4.90
2014,11,16,13,31,4.90
2014,11,16,13,32,4.90
2014,11,16,13,33,4.80
2014,11,16,13,34,4.80
2014,11,16,13,35,4.80
2014,11,16,13,36,4.80
2014,11,16,13,37,4.80
2014,11,16,13,38,4.80
2014,11,16,13,39,4.80
2014,11,16,13,40,4.80
2014,11,16,13,41,4.80
2014,11,16,13,42,4.80
2014,11,16,13,43,4.80
2014,11,16,13,44,4.80
2014,11,16,13,45,4.80
2014,11,16,13,46,4.80
2014,11,16,13,47,4.80
2014,11,16,13,48,4.80
2014,11,16,13,49,4.80
2014,11,16,13,50,4.80
2014,11,16,13,51,4.80
2014,11,16,13,52,4.80
2014,11,16,13,53,4.80
2014,11,16,13,54,4.80
2014,11,16,13,55,4.80
2014,11,16,13,56,4.90
2014,11,16,13,57,4.90
2014,11,16,13,58,4.90
2014,11,16,13,59,4.90
2014,11,16,14,00,4.90
2014,11,16,14,01,4.90
2014,11,16,14,02,4.90
2014,11,16,14,03,4.90
2014,11,16,14,04,4.90
2014,11,16,14,05,4.90
2014,11,16,14,06,4.90
2014,11,16,14,07,4.90
2014,11,16,14,08,4.90
2014,11,16,14,09,4.90
2014,11,16,14,10,4.90
2014,11,16,14,11,4.90
2014,11,16,14,12,4.90
2014,11,16,14,13,4.90
2014,11,16,14,14,4.90
2014,11,16,14,15,4.90
2014,11,16,14,16,4.90
2014,11,16,14,17,4.90
2014,11,16,14,18,4.90
2014,11,16,14,19,4.90
2014,11,16,14,20,4.90
2014,11,16,14,21,4.90
2014,11,16,14,22,4.90
2014,11,16,14,23,4.90
2014,11,16,14,24,4.90
2014,11,16,14,25,4.90
2014,11,16,14,26,4.90
2014,11,16,14,27,4.90
2014,11,16,14,28,4.90
2014,11,16,14,29,4.90
2014,11,16,14,30,4.90
2014,11,16,14,31,4.90
2014,11,16,14,32,4.90
2014,11,16,14,33,4.90
2014,11,16,14,34,4.90
2014,11,16,14,35,4.90
2014,11,16,14,36,4.90
2014,11,16,14,37,4.90
2014,11,16,14,38,4.90
2014,11,16,14,39,4.90
2014,11,16,14,40,4.90
2014,11,16,14,41,4.90
2014,11,16,14,42,4.90
2014,11,16,14,43,4.90
2014,11,16,14,44,4.90
2014,11,16,14,45,4.90
2014,11,16,14,46,4.90
2014,11,16,14,47,4.90
2014,11,16,14,48,4.90
2014,11,16,14,49,4.90
2014,11,16,14,50,4.90
2014,11,16,14,51,4.90
2014,11,16,14,52,4.80
2014,11,16,14,53,4.80
2014,11,16,14,54,4.80
2014,11,16,14,55,4.80
2014,11,16,14,56,4.80
2014,11,16,14,57,4.80
2014,11,16,14,58,4.80
2014,11,16,14,59,4.80
2014,11,16,15,00,4.80
2014,11,16,15,01,4.80
2014,11,16,15,02,4.80
2014,11,16,15,03,4.80
2014,11,16,15,04,4.70
2014,11,16,15,05,4.70
2014,11,16,15,06,4.70
2014,11,16,15,07,4.70
2014,11,16,15,08,4.70
2014,11,16,15,09,4.70
2014,11,16,15,10,4.70
2014,11,16,15,11,4.70
2014,11,16,15,12,4.70
2014,11,16,15,13,4.60
2014,11,16,15,14,4.60
2014,11,16,15,15,4.60
2014,11,16,15,16,4.60
2014,11,16,15,17,4.60
2014,11,16,15,18,4.60
2014,11,16,15,19,4.60
2014,11,16,15,20,4.60
2014,11,16,15,21,4.50
2014,11,16,15,22,4.50
2014,11,16,15,23,4.50
2014,11,16,15,24,4.50
2014,11,16,15,25,4.50
2014,11,16,15,26,4.40
2014,11,16,15,27,4.40
2014,11,16,15,28,4.40
2014,11,16,15,29,4.40
2014,11,16,15,30,4.40
2014,11,16,15,31,4.40
2014,11,16,15,32,4.40
2014,11,16,15,33,4.30
2014,11,16,15,34,4.30
2014,11,16,15,35,4.20
2014,11,16,15,36,4.20
2014,11,16,15,37,4.10
2014,11,16,15,38,4.10
2014,11,16,15,39,4.00
2014,11,16,15,40,4.00
2014,11,16,15,41,3.90
2014,11,16,15,42,3.90
2014,11,16,15,43,3.90
2014,11,16,15,44,3.90
2014,11,16,15,45,3.80
2014,11,16,15,46,3.80
2014,11,16,15,47,3.80
2014,11,16,15,48,3.70
2014,11,16,15,49,3.70
2014,11,16,15,50,3.60
2014,11,16,15,51,3.50
2014,11,16,15,52,3.50
2014,11,16,15,53,3.40
2014,11,16,15,54,3.40
2014,11,16,15,55,3.30
2014,11,16,15,56,3.30
2014,11,16,15,57,3.30
2014,11,16,15,58,3.20
2014,11,16,15,59,3.20
2014,11,16,16,00,3.20
2014,11,16,16,01,3.10
2014,11,16,16,02,3.10
2014,11,16,16,03,3.10
2014,11,16,16,04,3.00
2014,11,16,16,05,3.00
2014,11,16,16,06,2.90
2014,11,16,16,07,2.90
2014,11,16,16,08,2.90
2014,11,16,16,09,2.80
2014,11,16,16,10,2.80
2014,11,16,16,11,2.70
2014,11,16,16,12,2.70
2014,11,16,16,13,2.70
2014,11,16,16,14,2.60
2014,11,16,16,15,2.60
2014,11,16,16,16,2.60
2014,11,16,16,17,2.50
2014,11,16,16,18,2.50
2014,11,16,16,19,2.40
2014,11,16,16,20,2.40
2014,11,16,16,21,2.40
2014,11,16,16,22,2.30
2014,11,16,16,23,2.30
2014,11,16,16,24,2.30
2014,11,16,16,25,2.30
2014,11,16,16,26,2.30
2014,11,16,16,27,2.30
2014,11,16,16,28,2.30
2014,11,16,16,29,2.20
2014,11,16,16,30,2.20
2014,11,16,16,31,2.20
2014,11,16,16,32,2.10
2014,11,16,16,33,2.10
2014,11,16,16,34,2.10
2014,11,16,16,35,2.10
2014,11,16,16,36,2.00
2014,11,16,16,37,2.00
2014,11,16,16,38,1.90
2014,11,16,16,39,1.90
2014,11,16,16,40,1.90
2014,11,16,16,41,1.80
2014,11,16,16,42,1.80
2014,11,16,16,43,1.70
2014,11,16,16,44,1.70
2014,11,16,16,45,1.60
2014,11,16,16,46,1.60
2014,11,16,16,47,1.50
2014,11,16,16,48,1.40
2014,11,16,16,49,1.30
2014,11,16,16,50,1.30
2014,11,16,16,51,1.30
2014,11,16,16,52,1.30
2014,11,16,16,53,1.20
2014,11,16,16,54,1.20
2014,11,16,16,55,1.10
2014,11,16,16,56,1.00
2014,11,16,16,57,1.00
2014,11,16,16,58,0.90
2014,11,16,16,59,0.90
2014,11,16,17,00,0.90
2014,11,16,17,01,0.90
2014,11,16,17,02,0.90
2014,11,16,17,03,0.90
2014,11,16,17,04,0.90
2014,11,16,17,05,1.00
2014,11,16,17,06,1.00
2014,11,16,17,07,1.10
2014,11,16,17,08,1.10
2014,11,16,17,09,1.20
2014,11,16,17,10,1.20
2014,11,16,17,11,1.20
2014,11,16,17,12,1.20
2014,11,16,17,13,1.30
2014,11,16,17,14,1.30
2014,11,16,17,15,1.30
2014,11,16,17,16,1.30
2014,11,16,17,17,1.30
2014,11,16,17,18,1.30
2014,11,16,17,19,1.30
2014,11,16,17,20,1.30
2014,11,16,17,21,1.30
2014,11,16,17,22,1.40
2014,11,16,17,23,1.60
2014,11,16,17,24,1.70
2014,11,16,17,25,1.70
2014,11,16,17,26,1.80
2014,11,16,17,27,1.80
2014,11,16,17,28,1.80
2014,11,16,17,29,2.00
2014,11,16,17,30,2.10
2014,11,16,17,31,2.20
2014,11,16,17,32,2.20
2014,11,16,17,33,2.20
2014,11,16,17,34,2.20
2014,11,16,17,35,2.20
2014,11,16,17,36,2.20
2014,11,16,17,37,2.20
2014,11,16,17,38,2.20
2014,11,16,17,39,2.20
2014,11,16,17,40,2.20
2014,11,16,17,41,2.20
2014,11,16,17,42,2.20